Location: Krakow
(50.0830°N, 19.9170°E)
Time: 18:04:38
(UTC+01:00)

Vanguard 1 Rocket - Pass Details

Date: 17 December 2023
Orbit: 653 x 4219 km, 34.3° (Epoch: 29 February)

Event Time Altitude Azimuth Distance (km) Brightness Sun altitude
Rises 03:23:17 0° 249° (WSW) 8,343 - -38.8°
Reaches altitude 10° 03:29:15 10° 245° (WSW) 7,412 - -37.9°
Exits shadow 03:43:03 36° 225° (SW) 5,318 10.8 -35.7°
Maximum altitude 03:53:08 50° 180° (S) 4,265 10.6 -34.0°
Drops below altitude 10° 04:09:17 10° 112° (ESE) 5,227 12.0 -31.5°
Sets 04:12:38 0° 107° (ESE) 5,844 12.6 -30.9°
